Погода в Индианаполисе

США     39°46′00″N   86°09′23″W
темп.,
°C
ветер,
м/с
пор.,
м/с
влажн.,
%
обл.,
%
осадки,
мм/ч
давл.,
гПа
погр.,
м
15 мая, сб
сб1523:00+14юз245252 0.0 1025102
02:00+12зюз1255100 0.0 102522
05:00+11ююв226018 0.0 102540
08:00+12ююв246099 0.0 1026108
11:00+18ю4645100 0.0 1025739
14:00+19ю3540100 0.0 10241926
17:00+18ю3544100 0.0 10232258
20:00+15ю2564100 0.1 1022238
16 мая, вс
вс1623:00+12юв3679100 0.6 1023346
02:00+12вюв2782100 1.0 1022332
05:00+11юв2490100 0.2 1022173
08:00+11юв369538 1.4 1023261
11:00+13юв249189 0.1 1023272
14:00+15ююв3583100 0.1 1022445
17:00+16ююв3480100 0.0 1021502
20:00+15юв2487100 0.0 1020410
17 мая, пн
пн1723:00+14вюв2594100 0.0 1021189
02:00+14вюв2695100 0.0 1019214
05:00+13в2798100 0.6 1019242
08:00+14в3797100 0.9 1020269
11:00+17юв4687100 0.0 1020549
14:00+18ююв3587100 0.3 1021587
17:00+17ссз0091100 2.5 102022
20:00+16юв2695100 2.6 1020219
18 мая, вт
вт1823:00+15юв3995100 0.0 1022386
02:00+15юв3994100 0.1 1021275
05:00+15юв31198100 1.5 1021465
08:00+15юв51297100 7.2 1021441
11:00+15юв51396100 1.6 1022616
14:00+16юв51397100 4.9 1021666
17:00+17ююв51295100 1.2 1021710
20:00+17ююв41192100 1.8 1021438
19 мая, ср
ср1923:00+16ююв41393100 0.7 1021381
02:00+15юв31391100 1.1 1021347
05:00+15ююв3139380 0.1 1021341
08:00+16ююв3129198 0.2 1023406
11:00+22ю5966100 0.0 1023761
14:00+26ююз585559 0.3 10231538
17:00+26ю47585 1.4 10221360
20:00+23ююв387763 1.9 1022592